Regional Weather Roundup
Issued by NWS Kansas City/Pleasant Hill, MO

Home | Current Version | Previous Version | Text Only | Print | Product List | Glossary On
Versions: 1 2 3 4 5 6 7 8 9 10 11 12 13 14 15 16 17 18 19 20 21 22 23 24 25 26 27
000
ASUS43 KEAX 230010
RWREAX

WEATHER ROUNDUP FOR EASTERN KANSAS AND NORTHWEST MISSOURI
NATIONAL WEATHER SERVICE KANSAS CITY/PLEASANT HILL MO
700 PM CDT SAT JUL 22 2017

KSZ040-057-103>105-MOZ028-029-037-043-230100-
...KANSAS CITY METROPOLITAN AREA...

CITY           SKY/WX    TMP DP  RH WIND       PRES   REMARKS
K.C. INTL      FAIR      91  79  67 N7        29.80R HX 107
6HR MIN TEMP:  91; 6HR MAX TEMP:  98;

K.C. DOWNTOWN  FAIR      95  76  53 N7        29.76S HX 108
6HR MIN TEMP:  94; 6HR MAX TEMP:  99;

LEES SUMMIT    FAIR      98  76  49 CALM      29.79F HX 112
6HR MIN TEMP:  94; 6HR MAX TEMP:  99;

OLATHE - IXD   FAIR      96  78  56 N6        29.79S HX 112
6HR MIN TEMP:  93; 6HR MAX TEMP: 100;

OLATHE - OJC   FAIR      96  75  50 N6        29.79F HX 108
6HR MIN TEMP:  92; 6HR MAX TEMP:  98;

LAWRENCE       FAIR      91  80  70 N7        29.77S HX 109

$$

MOZ001>008-011>017-020>025-030>033-038>040-044>046-053-054-230100-
...NORTHERN AND CENTRAL MISSOURI...

CITY           SKY/WX    TMP DP  RH WIND       PRES   REMARKS
ST. JOSEPH     FAIR      87  81  82 N7        29.81R HX 104
6HR MIN TEMP:  87; 6HR MAX TEMP:  96;

MOSBY          FAIR      91  75  59 N6        29.78S HX 102
WARRENSBURG    FAIR      95  73  49 S6        29.78S HX 105
WHITEMAN AFB   NOT AVBL
CLINTON        FAIR      95  79  59 SW7       29.80S HX 112
SEDALIA        FAIR      95  79  59 SW10      29.80F HX 112
6HR MIN TEMP:  94; 6HR MAX TEMP:  98;

WARSAW         NOT AVBL
CHILLICOTHE      N/A     93  82  70 N3        29.81R HX 116
6HR MIN TEMP:  92; 6HR MAX TEMP:  97;

KIRKSVILLE     FAIR      89  79  72 W5        29.81R HX 104
6HR MIN TEMP:  89; 6HR MAX TEMP:  96;


$$

MOZ041-047>049-056>058-063>065-088>090-097-230100-
...EASTERN AND SOUTHERN MISSOURI...

CITY           SKY/WX    TMP DP  RH WIND       PRES   REMARKS
ST. LOUIS INTL FAIR     103  70  34 W13       29.76S HX 111
6HR MIN TEMP:  95; 6HR MAX TEMP: 108;

SPIRIT OF STL  FAIR      99  74  44 W7        29.74S HX 110
COLUMBIA       FAIR      96  75  50 W9        29.78F HX 108
JEFFERSON CITY FAIR      97  79  56 NW6       29.75F HX 115
ROLLA          FAIR      94  75  54 SW5       29.81S HX 105
OSAGE BEACH    FAIR      99  72  41 SW9       29.80  HX 108
SPRINGFIELD    FAIR      94  73  50 S12       29.85F HX 103
BRANSON        MOSUNNY   93  72  49 SW5       29.90F HX 100
JOPLIN         FAIR      97  73  45 SW14      29.83F HX 107
WEST PLAINS    FAIR      93  66  40 S8        29.90F HX  96

$$

IAZ060-094-KSZ022-034>040-054-083-096-NEZ052-066-093-230100-
...KANSAS...SOUTHEAST NEBRASKA AND IOWA...

CITY           SKY/WX    TMP DP  RH WIND       PRES   REMARKS
TOPEKA         FAIR      90  75  61 NW16G23   29.78R HX 100
6HR MIN TEMP:  92; 6HR MAX TEMP: 103;

MANHATTAN      TSTM      93  69  45 N14G26    29.79R HX  98
EMPORIA        FAIR      98  70  40 S12       29.75F HX 105
CHANUTE        FAIR      96  73  47 S13G22    29.78F HX 105
WICHITA        FAIR     102  62  26 SE13      29.77F HX 104
OMAHA          LGT RAIN  84  75  74 N14       29.87F HX  92
LINCOLN        FAIR      83  74  74 N13       29.90R
FALLS CITY     FAIR      86  78  77 NE7       29.82F HX  98
LAMONI         FAIR      89  73  59 N16       29.84R HX  97
DES MOINES     PTSUNNY   86  73  65 N10       29.85R HX  93

$$





USA.gov is the U.S. government's official web portal to all federal, state and local government web resources and services.